Miscellaneous Local Product
Issued by NWS North Platte, NE

Home | Current Version | Previous Version | Text Only | Print | Product List | Glossary On
Versions: 1 2 3 4 5 6 7 8 9 10 11 12 13 14 15 16 17 18 19 20 21 22 23 24 25 26 27 28 29 30 31 32 33 34 35 36 37 38 39 40 41 42 43 44 45 46 47 48 49 50
000
AXUS43 KLBF 021010
MISLBF


WESTERN AND NORTH CENTRAL NEBRASKA HOURLY WEATHER ROUNDUP
NATIONAL WEATHER SERVICE NORTH PLATTE NE
500 AM CDT THU OCT 02 2014

***STATIONS NOT REPORTING VARIABLES SUCH AS SKY/WEATHER OR
PRESSURE ARE PROVIDED BY THE NEBRASKA DEPARTMENT OF
ROADS...RAWS...AND APRS NETWORKS...AND ARE NOT UNDER
NATIONAL WEATHER SERVICE QUALITY CONTROL***

...OBSERVATIONS IN AND NEAR THE EASTERN PANHANDLE OF NEBRASKA...

CITY           SKY/WX    TMP DP  RH WIND       PRES   REMARKS
PINE RIDGE     CLEAR     42  41  96 SW6       30.01R
CHADRON        CLEAR     41  39  93 SW10      30.03S
ALLIANCE       PTCLDY    41  39  93 W9        30.04R
SIDNEY         MOCLDY    43  40  89 NW13      30.06R
WHITECLAY        N/A     40  38  92 SE6         N/A
RUSHVILLE        N/A     37  36  96 SW7         N/A  WCI  32
LISCO            N/A     44  41  88 W7          N/A
BIG SPRINGS      N/A     48  46  92 CALM        N/A
$$

...OBSERVATIONS IN NORTH CENTRAL NEBRASKA...

CITY           SKY/WX    TMP DP  RH WIND       PRES   REMARKS
VALENTINE      CLOUDY    50  47  89 NW7       29.97R
THEDFORD       CLOUDY    50  48  92 NW10      29.97S
AINSWORTH      CLOUDY    50  50  99 NW7       29.96R
O`NEILL        DRIZZLE   52  51  98 N8        29.92F
ORD            CLOUDY    52  49  89 N12       29.91R
BROKEN BOW     LGT RAIN  52  50  93 NE8       29.93F
SPRINGVIEW       N/A     50  48  93 W3          N/A
ROSE             N/A     51  51  99 W13         N/A
NEWPORT          N/A     51  51  99 W9          N/A
SARGENT          N/A     51  49  95 CALM        N/A
COMSTOCK         N/A     54  54 100 N7          N/A
CHAMBERS         N/A     51  50  97 W6          N/A
EWING            N/A     52  51  95 N6          N/A
$$

...OBSERVATIONS IN SOUTHWEST NEBRASKA AND FAR NORTHEAST COLORADO...

CITY           SKY/WX    TMP DP  RH WIND       PRES   REMARKS
WRAY           PTSUNNY   48  47  99 NW10      30.02F
HOLYOKE        PTSUNNY   46  43  87 NW10      30.03F
IMPERIAL       CLOUDY    50  46  86 NW14      30.00R
OGALLALA       MOCLDY    47  46  95 W7        30.02R
NORTH PLATTE   CLOUDY    50  48  93 NW5       29.97R
MCCOOK         CLOUDY    52  49  89 NW15      29.96R
LEXINGTON      LGT RAIN  53  51  92 NE6       29.93F
PAXTON           N/A     50  47  90 NW6         N/A
SUTHERLAND       N/A     45  43  91 W5          N/A
BRADY            N/A     50  47  90 CALM        N/A
GOTHENBURG       N/A     51  47  86 NE5         N/A
CALLAWAY         N/A     50  49  95 N7          N/A
$$

...SOME WEATHER OBSERVATIONS FROM AROUND THE REGION...

CITY           SKY/WX    TMP DP  RH WIND       PRES   REMARKS
DENVER         MOCLDY    42  38  85 W8        30.10R
LARAMIE        CLEAR     29  27  92 E6        30.12S WCI  23
CHEYENNE       PTCLDY    39  32  76 NW13      30.10R WCI  31
SCOTTSBLUFF    CLEAR     40  39  97 NW5       30.07R
RAPID CITY     CLEAR     40  36  86 NW9       29.99S WCI  34
PIERRE         PTCLDY    50  46  86 W9        29.92S
WINNER         LGT RAIN  52  49  89 W8        29.95S
SIOUX FALLS    CLOUDY    54  49  83 N8        29.85R
OMAHA          FOG       64  63  96 CALM      29.76F VSB 1/4
GRAND ISLAND   MOCLDY    54  51  90 N17       29.86R
KANSAS CITY    CLOUDY    67  64  90 SE10      29.73R
WICHITA        PTCLDY    70  64  81 S10       29.67S
HAYS           CLOUDY    57  46  67 NW22G30   29.84R
LIBERAL        CLOUDY    57  45  62 NW23G29   29.88R
GOODLAND       LGT RAIN  48  46  93 N16       30.01R
$$



USA.gov is the U.S. government's official web portal to all federal, state and local government web resources and services.